Flag for Germany Weather past 2 weeks in Witzenhausen, Hesse, Germany

Now
66 °F

Passing clouds.


Feels Like: 66 °F
Forecast: 58 / 67 °F
Wind: 3 mph from East

Location: Kassel / Calden

Current Time: Jul 7, 2015 at 9:32:27 AM

Latest Report: Jul 7, 2015 at 8:50 AM


Visibility: N/A

Pressure: 29.98 "Hg

Humidity: 73%

Dew point: 57 °F

Location of WitzenhausenLocation

Historic Weather in Witzenhausen — Graph

°F

Witzenhausen temperature yesterday

Maximum temperature yesterday: 75 °F (at 4:50 PM)
Minimum temperature yesterday: 59 °F (at 6:20 AM)
Average temperature yesterday: 69 °F

Past Weeks' High & Low Weather Summary

 TemperatureHumidityPressure
High97 °F (Jul 4, 2:20 PM)100% (Jun 23, 6:50 AM)30.27 "Hg (Jun 23, 6:50 AM)
Low46 °F (Jun 23, 5:50 AM)30% (Jun 22, 8:20 AM)29.68 "Hg (Jun 22, 8:20 PM)
Average69 °F64%30.10 "Hg
* Reported Jun 22 8:20 AM — Jul 7 8:20 AM, Witzenhausen, Weather by CustomWeather, © 2015

Note: Actual official high and low records may vary slightly from our data, if they occured in-between our weather recording intervals... More about our weather records

Advertising

Witzenhausen weather history for previous 24 hours

 ConditionsComfort  
Time TempWeatherWind HumidityBarometerVisibility
8:20 AM
Tue, Jul 7
63 °FSunny.5 mph77%29.98 "Hg10 mi
7:50 AM61 °FSunny.6 mph83%30.01 "Hg10 mi
7:20 AM61 °FSunny.2 mph83%30.01 "Hg10 mi
6:50 AM59 °FSunny.2 mph88%30.01 "Hg10 mi
6:20 AM57 °FSunny.1 mph88%30.01 "Hg10 mi
5:50 AM55 °FClear.1 mph94%30.04 "Hg10 mi
9:50 PM
Mon, Jul 6
68 °FSunny.2 mph60%30.12 "Hg10 mi
9:20 PM68 °FSunny.3 mph64%30.12 "Hg10 mi
8:50 PM70 °FSunny.6 mph60%30.12 "Hg10 mi
8:20 PM72 °FSunny.7 mph53%30.12 "Hg10 mi
7:50 PM73 °FSunny.7 mph47%30.12 "Hg10 mi
7:20 PM73 °FSunny.7 mph50%30.12 "Hg10 mi
6:50 PM73 °FPassing clouds.8 mph47%30.12 "HgN/A
6:20 PM75 °FPassing clouds.5 mph41%30.12 "HgN/A
5:50 PM75 °FPassing clouds.5 mph44%30.12 "HgN/A
5:20 PM73 °FSunny.3 mph44%30.12 "Hg10 mi
4:50 PM75 °FPassing clouds.8 mph41%30.15 "HgN/A
4:20 PM73 °FPassing clouds.9 mph44%30.15 "HgN/A
3:50 PM73 °FPassing clouds.9 mph44%30.15 "HgN/A
3:20 PM73 °FSunny.7 mph41%30.15 "Hg10 mi
2:50 PM73 °FSunny.10 mph41%30.15 "Hg10 mi
2:20 PM73 °FScattered clouds.9 mph47%30.15 "HgN/A
1:50 PM72 °FScattered clouds.8 mph50%30.15 "HgN/A
1:20 PM72 °FScattered clouds.9 mph50%30.15 "HgN/A
12:50 PM70 °FScattered clouds.10 mph53%30.18 "HgN/A
12:20 PM70 °FScattered clouds.12 mph57%30.18 "HgN/A
11:50 AM70 °FScattered clouds.9 mph53%30.18 "HgN/A
11:20 AM68 °FScattered clouds.8 mph60%30.18 "HgN/A
10:50 AM68 °FScattered clouds.9 mph60%30.18 "HgN/A
10:20 AM66 °FScattered clouds.8 mph64%30.18 "HgN/A
9:50 AM66 °FScattered clouds.9 mph64%30.18 "HgN/A
9:20 AM64 °FScattered clouds.10 mph78%30.18 "HgN/A
Weather by CustomWeather, © 2015

See weather overviewHow to use our weather pages